Tracking 32412 objects as of 6-Dec-2025
HD Live streaming from Space Station
objects crossing your sky now

STARLINK-6091

Track STARLINK-6091 now!
10-day predictions
STARLINK-6091 is classified as:


NORAD ID: 56119
Int'l Code: 2023-046AC
Perigee: 565.0 km
Apogee: 566.9 km
Inclination: 43.0 °
Period: 95.8 minutes
Semi major axis: 6936 km
RCS: Unknown
Launch date: March 29, 2023
Source: United States (US)
Launch site: AIR FORCE EASTERN TEST RANGE (AFETR)
Your satellite tracking list
Your tracking list is empty




NASA's NSSDC Master Catalog

Two Line Element Set (TLE):
1 56119U 23046AC  25340.59375965 -.00015018  00000-0 -10969-2 0  9994
2 56119  43.0026 292.2016 0001361 289.5045  70.5651 15.02610800148207
Source of the keplerian elements: AFSPC